www.pogodaiklimat.ru

Погода и климат >> Архив погоды >> Украина >> Харьков


АРХИВ ПОГОДЫ в Харькове

Время (UTC), дата Ветер
(напр.,м/с)
 
Видим.   Явления Облачность Т
(С)
Тd
(С)
f
(%)
Тe
(С)
Тes
(С)
Комфортность P
(гПа)
Po
(гПа)
Тmin
(С)
Tmax
(С)
R
(мм)
R24
(мм)
S
(см)
03 15.04 С 3 6000 м слаб. ливневой дождь 10/10 180 м
[Cb cap]
+2.9 +2.1 94 -1 -1 холодно 1014.5 995.3
06 15.04 С 5 7000 м дымка {ливн. осадки, дождь} 10/10 150 м
[Sc]
+3.9 +3.2 95 -1 -1 холодно 1014.1 995.0 +2.9 0.8
09 15.04 С 4 6000 м дымка 10/10 150 м
[Sc]
+6.6 +5.5 93 +3 +3 холодно 1014.2 995.3
12 15.04 С 6 5000 м слаб. ливневой дождь 10/10 150 м
[Cb cap]
+9.8 +9.4 97 +6 +6 холодно 1012.1 993.5
15 15.04 СВ 8 9000 м слаб. дождь 10/8 240 м
[Frnb As op]
+10.7 +9.9 95 +7 +7 прохладно 1011.3 992.7
18 15.04 СВ 7 7000 м слаб. ливневой дождь 10/10 180 м
[Cb cap]
+10.6 +10.0 96 +7 +7 по сезону 1012.0 993.4 +11.0 11
21 15.04 СВ 3 10 км в посл. час ливневой дождь 10/10 960 м
[Cb cap]
+10.2 +9.6 96 +8 +8 по сезону 1012.9 994.3
00 16.04 В 4 10 км {ливн. осадки} 10/10 210 м
[Sc]
+9.8 +9.0 95 +7 +7 тепло 1013.7 995.0 5
03 16.04 СВ 5 10 км 6/6 180 м
[Sc]
+9.2 +8.6 96 +6 +6 по сезону 1014.3 995.6
06 16.04 СВ 4 10 км 9/9 270 м
[Sc]
+10.4 +9.2 92 +8 +8 по сезону 1015.2 996.5 +8.7 5
09 16.04 СВ 5 10 км 10/10 360 м
[Sc]
+11.7 +8.9 83 +9 +9 по сезону 1015.8 997.2
12 16.04 СВ 5 10 км 10/10 360 м
[Sc]
+11.8 +8.8 82 +9 +9 прохладно 1015.9 997.3
15 16.04 СВ 5 10 км 10/10 330 м
[Sc]
+10.7 +8.9 89 +8 +8 по сезону 1016.4 997.7
18 16.04 СВ 5 10 км слаб. ливневой дождь 10/10 270 м
[Cb cap]
+10.0 +8.6 91 +7 +7 по сезону 1017.7 999.0 +12.4 0.0
21 16.04 СВ 3 10 км слаб. ливневой дождь 10/10 240 м
[Cb cap]
+9.6 +8.6 93 +7 +7 по сезону 1017.7 998.9
00 17.04 СВ 6 6000 м слаб. ливневой дождь 10/10 270 м
[Cb cap]
+9.0 +8.2 95 +5 +5 по сезону 1017.6 998.8
03 17.04 СВ 6 10 км слаб. ливневой дождь 10/10 1000 м
[Cb cap]
+9.2 +8.0 92 +5 +5 по сезону 1018.6 999.8
06 17.04 СВ 6 10 км {ливн. осадки} 9/0
[Ac trans Ci fib]
+8.3 +4.4 76 +4 +6 по сезону 1020.4 1001.5 +7.6 4
09 17.04 СВ 8 10 км 8/0
[Ac trans Ci fib]
+11.8 +2.9 54 +9 +11 по сезону 1021.6 1002.9
12 17.04 СВ 8 10 км 8/6 1320 м
[Cu hum Ci fib]
+14.3 +3.8 49 +12 +13 по сезону 1022.7 1004.1
15 17.04 СВ 8 10 км 9/5 1000 м
[Sc diur, vesp Ac trans]
+11.2 +0.5 48 +8 +8 по сезону 1024.3 1005.5
18 17.04 СВ 3 10 км 3/0
[Ac trans]
+6.3 -0.9 60 +4 +4 прохладно 1027.0 1007.8 +14.3
21 17.04 СВ 3 10 км ясно +4.6 -1.5 65 +1 +1 прохладно 1027.9 1008.6
00 18.04 СВ 3 10 км ясно +1.9 -3.5 67 -2 -2 холодно 1028.6 1009.1
03 18.04 СВ 3 10 км ясно +1.1 -5.3 62 -3 -3 очень
холодно
1029.6 1010.0
06 18.04 В 2 10 км 3/0
[Ci fib]
+6.2 -8.2 35 +5 +11 по сезону 1030.1 1010.8 +0.7
09 18.04 СВ 3 10 км 5/0
[Ci fib]
+9.6 -9.7 25 +8 +18 опасность
простуды
1029.0 1010.0
12 18.04 СВ 3 10 км 9/0
[Ac trans Ci]
+9.8 -8.6 26 +8 +13 прохладно 1027.2 1008.2
15 18.04 В 3 10 км 9/0
[Ac trans Ci]
+9.9 -8.9 26 +8 +9 по сезону 1026.0 1007.1
18 18.04 В 2 10 км 8/0
[Ac trans Ci fib]
+7.5 -7.2 34 +6 +6 по сезону 1026.5 1007.4 +10.5
21 18.04 В 2 10 км 6/0
[Ac trans Ci fib]
+5.5 -7.5 39 +4 +4 по сезону 1026.2 1007.0
00 19.04 С 2 10 км 6/0
[Ac trans Ci fib]
+2.8 -4.5 59 0 0 прохладно 1026.2 1006.8
03 19.04 СЗ 2 10 км 8/0
[Ac trans Ci fib]
+0.9 -2.7 77 -2 -2 холодно 1026.4 1006.8
06 19.04 СВ 4 10 км 3/0
[Ac trans]
+9.2 -7.8 29 +7 +11 по сезону 1026.5 1007.5 +0.9
09 19.04 В 6 10 км 3/3 1000 м
[Cu hum Ci fib]
+11.9 -7.6 25 +10 +14 по сезону 1026.7 1007.9
12 19.04 В 5 10 км 6/6 1000 м
[Cu med, cong]
+12.5 -7.8 23 +11 +13 по сезону 1026.3 1007.5
15 19.04 С 5 10 км 6/4 1000 м
[Sc diur, vesp Ac trans]
+10.8 -8.0 26 +9 +9 по сезону 1026.3 1007.4
18 19.04 С 3 10 км ясно +7.3 -8.1 33 +5 +5 прохладно 1027.5 1008.4 +13.1
21 19.04 С 2 10 км ясно +5.0 -7.0 42 +3 +3 прохладно 1027.6 1008.3
00 20.04 СЗ 2 10 км ясно +1.1 -2.8 75 -2 -2 холодно 1027.9 1008.3
03 20.04 СЗ 1 10 км ясно +0.4 -2.0 84 -2 -1 очень
холодно
1027.6 1008.0
06 20.04 Ю 1 10 км ясно +9.0 -2.9 43 +9 +17 по сезону 1027.4 1008.4 +0.2
09 20.04 СВ 3 10 км ясно +12.5 -8.4 22 +12 +23 опасность
простуды
1026.8 1008.0
12 20.04 СВ 4 10 км ясно +14.0 -8.6 20 +13 +20 по сезону 1025.4 1006.7
15 20.04 СВ 3 10 км ясно +13.6 -7.3 23 +13 +14 по сезону 1024.6 1005.9
18 20.04 ЮВ 2 10 км ясно +9.9 -7.3 29 +9 +9 по сезону 1025.4 1006.5 +14.4
21 20.04 штиль 0 10 км ясно +6.8 -9.1 31 +7 +7 по сезону 1025.5 1006.4
00 21.04 штиль 0 10 км ясно +2.9 -3.3 64 +2 +2 по сезону 1025.4 1006.0
03 21.04 ЮВ 2 10 км 3/0
[Ci fib]
+1.0 -3.9 70 -2 -2 очень
холодно
1025.9 1006.4
06 21.04 ЮВ 2 10 км ясно +9.3 -2.8 42 +8 +15 по сезону 1026.0 1007.0 +0.3
09 21.04 ЮВ 4 10 км ясно +13.8 -8.5 20 +13 +22 тепло 1025.5 1006.8
12 21.04 ЮВ 2 10 км 4/3 1000 м
[Cu hum Ac cuf]
+15.4 -7.3 20 +16 +22 тепло 1024.6 1006.0
15 21.04 В 5 10 км 6/4 1000 м
[Sc diur, vesp Ac trans]
+14.6 -6.0 24 +13 +14 по сезону 1024.4 1005.8
18 21.04 СВ 2 10 км 3/0
[Ac trans]
+11.6 -8.3 24 +11 +11 по сезону 1025.3 1006.5 +16.2
21 21.04 СЗ 2 10 км 3/0
[Ac trans]
+7.6 -4.4 42 +6 +6 по сезону 1026.0 1006.9
00 22.04 С 3 10 км 6/0
[Ac trans]
+4.9 -2.7 58 +2 +2 прохладно 1026.4 1007.1

 

Местоположение метеостанции Харьков (Харьковская область, Украина): широта 49.97 долгота 36.13 высота над уровнем моря 155 м.

В архиве по умолчанию представлена погода в Харькове за последнюю неделю. Архивные данные за месяц целиком и за предыдущие месяцы, начиная с января 2011 года, Вы можете получить, выбрав интересующий диапазон дат из раскрывающегося списка и нажав кнопку "Ввод!".


*Определитесь, кто Вы:
робот инопланетянин человек

Внимание! Время в таблицах - всемирное. Для получения местного времени необходимо прибавить поправку, которая равна 2 ч.

Смотрите также архив погоды в соседних городах и на ближайших метеорологических станциях:

Погода в Золочеве (Львовская область, Украина) (39 км)
Погода в Боходухове (Харьковская область, Украина) (50 км)
Погода в Комсомольском (Донецкая область, Украина) (50 км)
Погода в Коломаке (Харьковская область, Украина) (66 км)
Погода в Белгороде (Белгородская область, Россия) (80 км)
Погода в Краснограде (Харьковская область, Украина) (82 км)
Погода в Великом Бурлуке (Харьковская область, Украина) (90 км)
Погода в Готне (Белгородская область, Россия) (96 км)
Погода в Купянске (Харьковская область, Украина) (119 км)
Погода в Лозовой (Харьковская область, Украина) (120 км)

Пояснения к столбцам:

Ветер - указаны скорость ветра в м/с - средняя за 10 мин, порывы в срок и между сроками (в фигурных скобках) и направление, откуда дует ветер: С - северный, СВ - северо-восточный, В - восточный, ЮВ - юго-восточный, Ю - южный, ЮЗ - юго-западный, З - западный, СЗ - северо-западный.
Видимость - горизонтальная дальность видимости в метрах или километрах. При видимости от 1 до 10 км при отсутствии осадков обычно наблюдается дымка, при ухудшении видимости до 1 км и менее - туман. В сухую погоду видимость может ухудшаться дымом, пылью или мглою.
Явления - указаны атмосферные явления, наблюдавшиеся в срок или в последний час перед сроком; фигурными скобками обозначены явления, наблюдавшиеся между сроками (за 1-3 часа до срока); квадратными скобками обозначены град или гололедные отложения с указанием их диаметра в мм.
Облачность - указаны через наклонную черту общая и нижняя облачность в баллах и высота нижней границы облаков в метрах; квадратными скобками обозначены формы облаков: Ci - перистые, Cs - перисто-слоистые, Cc - перисто-кучевые, Ac - высококучевые, As - высокослоистые, Sc - слоисто-кучевые, Ns - слоисто-дождевые, Cu - кучевые, Cb - кучево-дождевые. Подробнее классификацию облаков см. в Атласе облаков (PDF).
T - Температура воздуха - температура, измеренная на высоте 2 м над землей.
Td - Температура точки росы - температура, при понижении до которой содержащийся в воздухе водяной пар достигнет насыщения.
f - Относительная влажность воздуха - влажноcть воздуха, измеренная на высоте 2 м над землей.
Te - Эффективная температура - температура, которую ощущает одетый по сезону человек в тени. Характеристика душности погоды. При расчете учитывается влияние влажности воздуха и скорости ветра на теплоощущения человека.
Tes - Эффективная температура на солнце - температура, которую ощущает человек, с поправкой на солнечный нагрев. Характеристика знойности погоды. Зависит от высоты солнца над горизонтом, облачности и скорости ветра. Ночью, в пасмурную погоду, а также при ветре 12 м/с и более поправка равна нулю.
P - Атмосферное давление - приведенное к уровню моря атмосферное давление.
Po - Атмосферное давление - измеренное на уровне метеостанции атмосферное давление.
Tmin - Минимальная температура - минимум температуры воздуха на высоте 2 м над землей.
Tmax - Максимальная температура - максимум температуры воздуха на высоте 2 м над землей.
R - Количество осадков - Количество выпавших осадков за период времени, мм. При наведении курсора мыши на число - период времени, за который выпало указанное количество осадков.
R24 - Количество осадков - Количество выпавших осадков за 24 часа, мм.
S - Снежный покров - Высота снежного покрова, см. При наведении курсора мыши на число - состояние снежного покрова и степень покрытия местности в баллах.